Weather Roundup
Issued by NWS Chicago, IL

Home | Current Version | Previous Version | Text Only | Print | Product List | Glossary Off
Versions: 1 2 3 4 5 6 7 8 9 10 11 12 13 14 15 16 17 18 19 20 21 22 23 24 25 26 27 28 29 30 31 32 33 34 35 36 37 38 39 40 41 42 43 44 45 46 47 48 49 50

000
NZUS59 KLOT 250903
HRRLOT

CHICAGO AREA WEATHER ROUNDUP
NATIONAL WEATHER SERVICE CHICAGO/ROMEOVILLE IL
400 AM CDT TUE APR 25 2017

NOTE: "FAIR" INDICATES FEW OR NO CLOUDS BELOW 12,000 FEET WITH NO
SIGNIFICANT WEATHER AND/OR OBSTRUCTIONS TO VISIBILITY.

* THESE STATIONS ARE NOT UNDER NWS QUALITY CONTROL. THEY ALSO MAY NOT
  REPORT WEATHER SUCH AS PRECIPITATION OR FOG.

ILZ005-006-012>014-019>023-251000-
NORTHEAST ILLINOIS

CITY           SKY/WX    TMP DP  RH WIND       PRES   REMARKS
OHARE          CLEAR     54  44  69 SE7       29.71F
MIDWAY         PTCLDY    59  46  62 S10       29.72F
AURORA         PTCLDY    51  43  74 SE8       29.71F
LANSING*       PTCLDY    55  47  77 SE6       29.74S
JOLIET*        CLEAR     55  45  69 SE6       29.72S
WAUKEGAN       CLEAR     51  41  68 SE9       29.72F
DUPAGE AIRPORT CLEAR     54  44  69 SE6       29.71S
WHEELING       CLEAR     51  41  68 CALM      29.73F
KANKAKEE*      PTCLDY    53  45  75 CALM      29.74S
MORRIS*        CLEAR     55  43  64 CALM      29.70F
NORTHERLY ISL    N/A     52  46  80 NE5         N/A
$$

WIZ051-052-058>065-066-070>072-251000-
SOUTHEAST WISCONSIN

CITY           SKY/WX    TMP DP  RH WIND       PRES   REMARKS
MILWAUKEE      PTCLDY    52  39  61 SE10      29.72F
KENOSHA*       CLEAR     53  39  59 SE9       29.73S
RACINE*        CLEAR     51  38  60 S8        29.75S
WAUKESHA       CLEAR     50  34  53 SE6       29.73F
WEST BEND      PTCLDY    52  34  50 SE7       29.72F
$$

INZ001>003-010>013-019-020-251000-
NORTHWEST INDIANA

CITY           SKY/WX    TMP DP  RH WIND       PRES   REMARKS
GARY*          CLEAR     58  44  60 SE8       29.74S
MICHIGAN CITY* NOT AVBL
RENSSELAER*    NOT AVBL
VALPARAISO     CLEAR     49  43  80 NE6       29.76S
$$

LMZ740>746-251000-
SOUTHERN LAKE MICHIGAN

STATION/POSITION TIME  SKY/WX   TEMP WIND        PRES    VSBY
                                AIR  DIR/SP/G
                 (UTC)          (F)  (DEG/KT/KT) (MB)    (MI)
HARRISON CRIB    0830            52  150/  6/  7   N/A
BURNHAM HARBOR   0900            52   CALM  /  4   N/A
CALUMET HARBOR   0830            59  140/  8/ 12 1006.4S
BURNS HARBOR     0840            58  140/  9/ 17 1008.1R
MICHIGAN CITY    0840            57  120/ 11/ 13   N/A
$$

ABBREVIATIONS USED IN REMARKS
   TC - TEMPERATURE IN CELSIUS
  WCI - WIND CHILL INDEX
   HX - HEAT INDEX
  VSB - VISIBILITY
$$




USA.gov is the U.S. government's official web portal to all federal, state and local government web resources and services.